TimeCDT,TemperatureF,Dew PointF,Humidity,Sea Level PressureIn,VisibilityMPH,Wind Direction,Wind SpeedMPH,Gust SpeedMPH,PrecipitationIn,Events,Conditions,WindDirDegrees,DateUTC
12:15 AM,26.6,17.6,69,30.11,10.0,West,5.8,-,N/A,,Clear,270,2013-03-11 05:15:00
12:35 AM,24.8,17.6,74,30.11,10.0,West,8.1,-,N/A,,Clear,270,2013-03-11 05:35:00
12:55 AM,23.0,17.6,80,30.11,10.0,West,6.9,-,N/A,,Clear,270,2013-03-11 05:55:00
1:15 AM,24.8,17.6,74,30.10,10.0,West,6.9,-,N/A,,Clear,260,2013-03-11 06:15:00
1:35 AM,24.8,17.6,74,30.10,10.0,West,8.1,-,N/A,,Clear,260,2013-03-11 06:35:00
2:15 AM,24.8,17.6,74,30.09,10.0,WSW,6.9,-,N/A,,Clear,250,2013-03-11 07:15:00
2:35 AM,23.0,17.6,80,30.09,10.0,West,6.9,-,N/A,,Clear,280,2013-03-11 07:35:00
2:55 AM,26.6,19.4,74,30.09,10.0,WNW,8.1,-,N/A,,Clear,290,2013-03-11 07:55:00
3:15 AM,23.0,17.6,80,30.09,10.0,West,6.9,-,N/A,,Clear,280,2013-03-11 08:15:00
3:35 AM,26.6,19.4,74,30.09,10.0,West,8.1,-,N/A,,Clear,270,2013-03-11 08:35:00
3:55 AM,26.6,19.4,74,30.07,10.0,West,8.1,-,N/A,,Clear,280,2013-03-11 08:55:00
4:15 AM,26.6,19.4,74,30.06,10.0,West,6.9,-,N/A,,Clear,270,2013-03-11 09:15:00
4:35 AM,26.6,19.4,74,30.05,10.0,West,9.2,-,N/A,,Clear,270,2013-03-11 09:35:00
4:55 AM,26.6,19.4,74,30.05,10.0,WSW,8.1,-,N/A,,Clear,250,2013-03-11 09:55:00
5:15 AM,23.0,19.4,86,30.05,10.0,WSW,8.1,-,N/A,,Clear,240,2013-03-11 10:15:00
5:35 AM,23.0,19.4,86,30.04,10.0,SW,8.1,-,N/A,,Clear,230,2013-03-11 10:35:00
5:55 AM,23.0,19.4,86,30.04,10.0,SW,9.2,-,N/A,,Clear,220,2013-03-11 10:55:00
6:15 AM,24.8,19.4,80,30.03,10.0,SW,8.1,-,N/A,,Clear,220,2013-03-11 11:15:00
6:35 AM,24.8,19.4,80,30.03,10.0,SW,10.4,-,N/A,,Clear,230,2013-03-11 11:35:00
6:55 AM,26.6,21.2,80,30.02,10.0,SW,11.5,-,N/A,,Clear,230,2013-03-11 11:55:00
7:15 AM,26.6,21.2,80,30.02,10.0,WSW,9.2,-,N/A,,Clear,240,2013-03-11 12:15:00
7:35 AM,26.6,21.2,80,30.02,10.0,WSW,10.4,-,N/A,,Clear,240,2013-03-11 12:35:00
7:55 AM,28.4,21.2,74,30.03,10.0,WSW,6.9,-,N/A,,Clear,240,2013-03-11 12:55:00
8:15 AM,28.4,21.2,74,30.01,10.0,SW,9.2,-,N/A,,Clear,230,2013-03-11 13:15:00
8:35 AM,30.2,21.2,69,30.02,10.0,WSW,10.4,-,N/A,,Clear,240,2013-03-11 13:35:00
8:55 AM,32.0,23.0,69,30.01,10.0,WSW,11.5,-,N/A,,Clear,240,2013-03-11 13:55:00
9:15 AM,32.0,21.2,64,30.01,10.0,WSW,11.5,-,N/A,,Clear,240,2013-03-11 14:15:00
9:35 AM,35.6,21.2,56,30.02,10.0,WSW,11.5,-,N/A,,Clear,240,2013-03-11 14:35:00
9:55 AM,37.4,21.2,52,30.03,10.0,WSW,11.5,-,N/A,,Clear,250,2013-03-11 14:55:00
10:15 AM,39.2,21.2,49,30.03,10.0,WSW,11.5,-,N/A,,Clear,250,2013-03-11 15:15:00
10:35 AM,41.0,21.2,45,30.03,10.0,WSW,12.7,-,N/A,,Clear,240,2013-03-11 15:35:00
10:55 AM,42.8,21.2,42,30.03,10.0,WSW,11.5,-,N/A,,Clear,250,2013-03-11 15:55:00
11:15 AM,46.4,23.0,40,30.02,10.0,SW,11.5,-,N/A,,Clear,230,2013-03-11 16:15:00
11:35 AM,50.0,23.0,35,30.02,10.0,West,10.4,17.3,N/A,,Clear,260,2013-03-11 16:35:00
11:55 AM,51.8,23.0,33,30.01,10.0,WSW,11.5,-,N/A,,Clear,240,2013-03-11 16:55:00
12:15 PM,53.6,23.0,30,30.01,10.0,WSW,10.4,-,N/A,,Clear,240,2013-03-11 17:15:00
12:35 PM,55.4,23.0,29,30.00,10.0,WSW,8.1,-,N/A,,Clear,240,2013-03-11 17:35:00
12:55 PM,59.0,23.0,25,29.99,10.0,SW,9.2,-,N/A,,Clear,230,2013-03-11 17:55:00
1:15 PM,59.0,23.0,25,29.98,10.0,SW,8.1,-,N/A,,Clear,220,2013-03-11 18:15:00
1:35 PM,60.8,23.0,23,29.98,10.0,SW,6.9,-,N/A,,Clear,230,2013-03-11 18:35:00
1:55 PM,62.6,21.2,20,29.98,10.0,West,6.9,-,N/A,,Clear,280,2013-03-11 18:55:00
2:15 PM,62.6,21.2,20,29.97,10.0,SW,8.1,-,N/A,,Clear,220,2013-03-11 19:15:00
2:35 PM,62.6,21.2,20,29.95,10.0,WSW,9.2,-,N/A,,Clear,240,2013-03-11 19:35:00
2:55 PM,64.4,19.4,18,29.94,10.0,North,4.6,-,N/A,,Clear,350,2013-03-11 19:55:00
3:15 PM,64.4,19.4,18,29.92,10.0,West,4.6,-,N/A,,Clear,280,2013-03-11 20:15:00
3:35 PM,68.0,19.4,16,29.92,10.0,WNW,10.4,16.1,N/A,,Clear,290,2013-03-11 20:35:00
3:55 PM,66.2,19.4,17,29.91,10.0,NNW,6.9,10.4,N/A,,Clear,340,2013-03-11 20:55:00
4:15 PM,68.0,19.4,16,29.91,10.0,West,9.2,-,N/A,,Clear,270,2013-03-11 21:15:00
4:35 PM,68.0,19.4,16,29.91,10.0,Calm,Calm,-,N/A,,Clear,0,2013-03-11 21:35:00
4:55 PM,68.0,19.4,16,29.91,10.0,WNW,8.1,-,N/A,,Clear,290,2013-03-11 21:55:00
5:15 PM,66.2,17.6,15,29.90,10.0,Calm,Calm,-,N/A,,Clear,0,2013-03-11 22:15:00
5:35 PM,68.0,19.4,16,29.89,10.0,Calm,Calm,-,N/A,,Clear,0,2013-03-11 22:35:00
5:55 PM,68.0,19.4,16,29.88,10.0,West,4.6,-,N/A,,Clear,280,2013-03-11 22:55:00
6:15 PM,68.0,19.4,16,29.88,10.0,South,6.9,-,N/A,,Clear,180,2013-03-11 23:15:00
6:35 PM,68.0,17.6,15,29.88,10.0,SW,4.6,-,N/A,,Clear,220,2013-03-11 23:35:00
6:55 PM,66.2,19.4,17,29.88,10.0,South,6.9,-,N/A,,Clear,180,2013-03-11 23:55:00
7:15 PM,64.4,19.4,18,29.88,10.0,WSW,6.9,-,N/A,,Clear,240,2013-03-12 00:15:00
7:35 PM,60.8,19.4,20,29.87,10.0,SW,5.8,-,N/A,,Clear,230,2013-03-12 00:35:00
7:55 PM,57.2,19.4,23,29.87,10.0,SSW,6.9,-,N/A,,Clear,210,2013-03-12 00:55:00
8:15 PM,50.0,24.8,37,29.88,10.0,SSW,9.2,-,N/A,,Clear,200,2013-03-12 01:15:00
8:35 PM,50.0,26.6,40,29.88,10.0,South,9.2,-,N/A,,Clear,190,2013-03-12 01:35:00
8:55 PM,50.0,23.0,35,29.89,10.0,NNE,4.6,-,N/A,,Clear,30,2013-03-12 01:55:00
9:35 PM,51.8,24.8,35,29.90,10.0,ENE,3.5,-,N/A,,Clear,60,2013-03-12 02:35:00
9:55 PM,50.0,26.6,40,29.90,10.0,East,4.6,-,N/A,,Clear,90,2013-03-12 02:55:00
10:15 PM,50.0,26.6,40,29.91,10.0,Calm,Calm,-,N/A,,Clear,0,2013-03-12 03:15:00
10:35 PM,50.0,26.6,40,29.91,10.0,Calm,Calm,-,N/A,,Clear,0,2013-03-12 03:35:00
10:55 PM,46.4,26.6,46,29.91,10.0,NE,5.8,-,N/A,,Clear,50,2013-03-12 03:55:00
11:15 PM,46.4,28.4,50,29.92,10.0,NE,5.8,-,N/A,,Clear,50,2013-03-12 04:15:00
11:35 PM,42.8,30.2,61,29.92,10.0,ENE,5.8,-,N/A,,Clear,60,2013-03-12 04:35:00
11:55 PM,42.8,30.2,61,29.93,10.0,East,4.6,-,N/A,,Clear,80,2013-03-12 04:55:00